DW1549 Fauske NO current weather conditions

sailwx.info

Wind at 0 knots gusting 1

Air temperature 8.3° C
Dewpoint 2.1° C

Last reported at 2014-Sep-21 15:51 UTC.
Time now 2014-Sep-21 16:09 UTC

Location: N 67°16' E 015°25'.
View on Google Maps.

See reports from other nearby stations

  
Tides and Currents Weather Stations Pressure Air Temp Water Temp Dewpoint Dewpoint Depression Visibility Wind Speed Wind Dir Waves Ship Positions
date/time (UTC)wind fromknots sea level pressurealtimeterstation pressurevisibilityair tempwater tempwave heightnotes
2014-Sep-21 15:51 8.3
2014-Sep-21 15:41 8.9
2014-Sep-21 15:31 009 0 gusting 8 9.4
2014-Sep-21 15:21 9.4
2014-Sep-21 15:11 009 1 gusting 6 10.0
2014-Sep-21 15:01 013 9.4
2014-Sep-21 14:51 021 8.9
2014-Sep-21 14:41 356 0 gusting 5 8.3
2014-Sep-21 14:31 019 8.9
2014-Sep-21 14:21 102 0 gusting 7 8.9
2014-Sep-21 14:11 010 0 gusting 10 8.9
2014-Sep-21 14:01 032 1 gusting 6 8.9
2014-Sep-21 13:51 038 1 gusting 4 8.9
2014-Sep-21 13:41 041 2 gusting 5 8.3
2014-Sep-21 13:31 7.8
2014-Sep-21 13:21 027 1 gusting 10 8.3
2014-Sep-21 13:11 311 1 gusting 5 8.3
2014-Sep-21 13:01 015 1 gusting 7 8.3
2014-Sep-21 12:51 022 1 gusting 11 8.9
2014-Sep-21 12:41 051 1 gusting 11 8.9
2014-Sep-21 12:31 046 3 gusting 10 8.9
2014-Sep-21 12:21 037 2 gusting 10 8.3
2014-Sep-21 12:11 048 1 gusting 11 7.8
2014-Sep-21 12:01 342 4 gusting 10 7.8
2014-Sep-21 11:51 046 1 gusting 10 7.8
2014-Sep-21 11:41 036 4 gusting 11 7.8
2014-Sep-21 11:31 033 2 gusting 13 7.8
2014-Sep-21 11:21 074 1 gusting 10 7.2
2014-Sep-21 11:11 037 2 gusting 12 7.2
2014-Sep-21 11:01 033 4 gusting 12 7.2
2014-Sep-21 10:51 052 3 gusting 10 7.2
2014-Sep-21 10:41 050 2 gusting 11 7.2
2014-Sep-21 10:31 053 3 gusting 13 7.2
2014-Sep-21 10:21 055 4 gusting 10 7.2
2014-Sep-21 10:11 046 2 gusting 8 7.2
2014-Sep-21 10:01 033 7.2
2014-Sep-21 09:51 039 7.2
2014-Sep-21 09:41 040 7.2
2014-Sep-21 09:31 065 1 gusting 5 7.2
2014-Sep-21 09:21 043 1 gusting 6 6.7
2014-Sep-21 09:11 046 0 gusting 4 6.7
2014-Sep-21 09:01 048 6.7
2014-Sep-21 08:51 048 6.7
2014-Sep-21 08:41 048 6.7
2014-Sep-21 08:31 048 6.7
2014-Sep-21 08:21 048 6.7
2014-Sep-21 08:11 048 6.7
2014-Sep-21 08:01 048 6.7
2014-Sep-21 07:51 048 6.7
2014-Sep-21 07:41 032 1 gusting 10 6.7
2014-Sep-21 07:31 036 1 gusting 8 6.7
2014-Sep-21 07:21 026 1 gusting 10 6.7
2014-Sep-21 07:11 007 1 gusting 8 6.7
2014-Sep-21 07:01 025 1 gusting 7 6.7
2014-Sep-21 06:51 030 6.7
2014-Sep-21 06:41 023 1 gusting 7 6.7
2014-Sep-21 06:31 039 1 gusting 5 6.7
2014-Sep-21 06:21 046 2 gusting 11 6.7
2014-Sep-21 06:11 017 6.7
2014-Sep-21 06:01 326 6.7
2014-Sep-21 05:51 048 6.7
2014-Sep-21 05:41 297 0 gusting 4 6.7
2014-Sep-21 05:31 035 2 gusting 6 6.7
2014-Sep-21 05:21 011 6.7
2014-Sep-21 05:11 030 0 gusting 7 7.2
2014-Sep-21 05:01 044 1 gusting 7 7.2
2014-Sep-21 04:51 021 0 gusting 7 7.2
2014-Sep-21 04:41 7.2
2014-Sep-21 04:31 016 0 gusting 5 7.8
2014-Sep-21 04:21 036 7.8
2014-Sep-21 04:11 033 0 gusting 8 7.8
2014-Sep-21 04:01 047 0 gusting 5 8.3
2014-Sep-21 03:51 141 8.3
2014-Sep-21 03:41 191 8.3
2014-Sep-21 03:31 259 0 gusting 5 8.3
2014-Sep-21 03:21 291 1 gusting 6 8.9
2014-Sep-21 03:11 234 8.9
2014-Sep-21 03:01 296 0 gusting 5 8.9
2014-Sep-21 02:51 256 1 gusting 7 9.4
2014-Sep-21 02:41 238 0 gusting 6 9.4
2014-Sep-21 02:31 260 1 gusting 5 9.4
2014-Sep-21 02:21 9.4
2014-Sep-21 02:11 005 9.4
2014-Sep-21 02:01 005 9.4
2014-Sep-21 01:51 005 9.4
2014-Sep-21 01:41 005 9.4
2014-Sep-21 01:31 005 10.0
2014-Sep-21 01:21 005 0 gusting 2 10.0
2014-Sep-21 01:11 021 0 gusting 2 10.0
2014-Sep-21 01:01 021 10.0
2014-Sep-21 00:51 021 1 gusting 4 10.0
2014-Sep-21 00:41 025 10.0
2014-Sep-21 00:31 025 10.0
2014-Sep-21 00:21 025 0 gusting 5 10.0
2014-Sep-21 00:11 025 0 gusting 5 10.0
2014-Sep-21 00:01 026 1 gusting 7 10.0
2014-Sep-20 23:51 030 1 gusting 6 10.0
2014-Sep-20 23:41 032 0 gusting 6 10.0
2014-Sep-20 23:31 034 10.0
2014-Sep-20 23:21 034 10.0
2014-Sep-20 23:11 034 10.0
2014-Sep-20 23:01 034 10.0
2014-Sep-20 22:51 035 3 gusting 10 10.0
2014-Sep-20 22:41 011 1 gusting 8 10.0
2014-Sep-20 22:31 019 2 gusting 6 10.0
2014-Sep-20 22:21 026 2 gusting 5 10.0
2014-Sep-20 22:11 026 10.0
2014-Sep-20 22:01 026 1 gusting 6 10.0
2014-Sep-20 21:51 022 1 gusting 7 10.0
2014-Sep-20 21:41 020 1 gusting 6 10.0
2014-Sep-20 21:31 014 3 gusting 7 10.0
2014-Sep-20 21:21 351 2 gusting 7 10.0
2014-Sep-20 21:11 013 0 gusting 4 10.6
2014-Sep-20 21:01 014 1 gusting 7 10.6
2014-Sep-20 20:51 005 2 gusting 8 10.6
2014-Sep-20 20:41 008 4 gusting 8 10.6
2014-Sep-20 20:31 026 1 gusting 6 10.6
2014-Sep-20 20:21 026 1 gusting 6 10.6
2014-Sep-20 20:11 026 1 gusting 6 10.6
2014-Sep-20 20:01 026 1 gusting 6 10.6
2014-Sep-20 19:51 028 1 gusting 6 10.6
2014-Sep-20 19:41 029 0 gusting 6 10.6
2014-Sep-20 19:31 029 1 gusting 4 10.6
2014-Sep-20 19:21 030 10.6
2014-Sep-20 19:11 030 10.6
2014-Sep-20 19:01 030 0 gusting 2 10.6
2014-Sep-20 18:51 030 0 gusting 5 10.6
2014-Sep-20 18:41 030 2 gusting 6 10.6
2014-Sep-20 18:31 035 1 gusting 4 10.6
2014-Sep-20 18:21 035 0 gusting 4 10.6
2014-Sep-20 18:11 035 10.6
2014-Sep-20 18:01 035 1 gusting 2 10.6
2014-Sep-20 17:51 035 10.6
2014-Sep-20 17:41 035 10.6
2014-Sep-20 17:31 035 10.6
2014-Sep-20 17:21 035 10.6
2014-Sep-20 17:11 035 11.1
2014-Sep-20 17:01 035 11.1
2014-Sep-20 16:51 035 11.1
2014-Sep-20 16:41 035 11.1
2014-Sep-20 16:31 035 11.1
2014-Sep-20 16:21 035 11.1
2014-Sep-20 16:11 035 11.1
2014-Sep-20 16:01 035 11.1
2014-Sep-20 15:51 035 11.1
2014-Sep-20 15:41 035 11.1
2014-Sep-20 15:31 035 11.1
2014-Sep-20 15:21 035 11.1
2014-Sep-20 15:11 035 11.1
2014-Sep-20 15:01 035 11.1
2014-Sep-20 14:51 035 11.1
2014-Sep-20 14:41 035 11.1
2014-Sep-20 14:31 035 11.1
2014-Sep-20 14:21 035 11.1
2014-Sep-20 14:11 035 11.1
2014-Sep-20 14:01 035 11.1
2014-Sep-20 13:51 035 11.1
2014-Sep-20 13:41 035 11.1
2014-Sep-20 13:31 035 11.1
2014-Sep-20 13:21 035 11.1
2014-Sep-20 13:11 035 11.7
2014-Sep-20 13:01 035 11.7
2014-Sep-20 12:51 035 11.7
2014-Sep-20 12:41 035 11.7
2014-Sep-20 12:31 035 11.7
2014-Sep-20 12:21 035 11.1
2014-Sep-20 12:11 035 11.1
2014-Sep-20 12:01 035 11.1
2014-Sep-20 11:51 035 11.1
2014-Sep-20 11:41 035 11.1
2014-Sep-20 11:31 035 11.1
2014-Sep-20 11:21 035 11.1
2014-Sep-20 11:11 035 11.1
2014-Sep-20 11:01 035 11.1
2014-Sep-20 10:51 035 11.1
2014-Sep-20 10:41 035 11.1
2014-Sep-20 10:31 035 11.1
2014-Sep-20 10:21 035 0 gusting 2 11.1
2014-Sep-20 10:11 035 11.1
2014-Sep-20 10:01 035 11.1
2014-Sep-20 09:51 035 11.1
2014-Sep-20 09:41 035 0 gusting 2 11.1
2014-Sep-20 09:31 036 11.1
2014-Sep-20 09:21 036 11.1
2014-Sep-20 09:11 036 11.1
2014-Sep-20 09:01 036 11.1
2014-Sep-20 08:51 036 11.1
2014-Sep-20 08:41 036 11.1
2014-Sep-20 08:31 036 11.1
2014-Sep-20 08:21 036 11.1
2014-Sep-20 08:11 036 1 gusting 4 10.6
2014-Sep-20 08:01 036 10.6
2014-Sep-20 07:51 036 10.6
2014-Sep-20 07:41 036 10.6
2014-Sep-20 07:31 036 10.6
2014-Sep-20 07:21 036 10.6
2014-Sep-20 07:11 036 10.6
2014-Sep-20 07:01 036 10.6
2014-Sep-20 06:51 035 10.0
2014-Sep-20 06:41 036 10.0
2014-Sep-20 06:31 035 10.0
2014-Sep-20 06:21 036 10.0
2014-Sep-20 06:11 035 10.0
2014-Sep-20 06:01 035 9.4
2014-Sep-20 05:51 035 9.4
2014-Sep-20 05:41 035 9.4
2014-Sep-20 05:31 035 9.4
2014-Sep-20 05:21 035 8.9
2014-Sep-20 05:11 035 8.9
2014-Sep-20 05:01 035 8.9
2014-Sep-20 04:51 035 8.9
2014-Sep-20 04:41 035 8.9
2014-Sep-20 04:31 035 8.9
2014-Sep-20 04:21 035 8.3
2014-Sep-20 04:11 035 8.3
2014-Sep-20 04:01 035 8.3
2014-Sep-20 03:51 035 0 gusting 2 8.3
2014-Sep-20 03:41 035 2 gusting 5 8.3
2014-Sep-20 03:31 038 1 gusting 2 8.3
2014-Sep-20 03:21 038 8.3
2014-Sep-20 03:11 038 8.3
2014-Sep-20 03:01 038 8.3
2014-Sep-20 02:51 038 8.3
2014-Sep-20 02:41 038 8.3
2014-Sep-20 02:31 038 8.3
2014-Sep-20 02:21 038 8.3
2014-Sep-20 02:11 038 8.3
2014-Sep-20 02:01 038 8.3
2014-Sep-20 01:51 038 7.8
2014-Sep-20 01:41 038 7.8
2014-Sep-20 01:31 039 7.8
2014-Sep-20 01:21 038 7.8
2014-Sep-20 01:11 039 7.8
2014-Sep-20 01:01 039 7.8
2014-Sep-20 00:51 039 7.8
2014-Sep-20 00:41 039 0 gusting 2 7.8
2014-Sep-20 00:31 039 7.8
2014-Sep-20 00:21 040 7.2
2014-Sep-20 00:11 040 7.2
2014-Sep-20 00:01 040 7.2
2014-Sep-19 23:51 040 1 gusting 2 7.2
2014-Sep-19 23:41 040 0 gusting 2 7.8
2014-Sep-19 23:31 040 7.8
2014-Sep-19 23:21 040 7.8
2014-Sep-19 23:11 040 7.2
2014-Sep-19 23:01 040 7.2
2014-Sep-19 22:51 040 7.2
2014-Sep-19 22:41 040 7.2
2014-Sep-19 22:31 040 7.2
2014-Sep-19 22:21 040 7.8
2014-Sep-19 22:11 040 7.8
2014-Sep-19 22:01 040 7.8
2014-Sep-19 21:51 040 7.8
2014-Sep-19 21:41 040 7.8
2014-Sep-19 21:31 015 7.8
2014-Sep-19 21:21 015 0 gusting 2 7.8
2014-Sep-19 21:11 015 7.8
2014-Sep-19 21:01 015 7.8
2014-Sep-19 20:51 015 0 gusting 2 7.8
2014-Sep-19 20:41 014 7.8
2014-Sep-19 20:31 005 7.8
2014-Sep-19 20:21 005 7.8
2014-Sep-19 20:11 005 7.2
2014-Sep-19 20:01 005 7.8
2014-Sep-19 19:51 005 7.8
2014-Sep-19 19:41 005 7.8
2014-Sep-19 19:31 005 7.8
2014-Sep-19 19:21 005 7.8
2014-Sep-19 19:11 005 7.8
2014-Sep-19 19:01 005 7.8
2014-Sep-19 18:51 005 0 gusting 2 7.8
2014-Sep-19 18:41 005 0 gusting 2 7.8
2014-Sep-19 18:31 005 2 gusting 2 7.8
2014-Sep-19 18:21 005 0 gusting 2 7.8
2014-Sep-19 18:11 005 7.8
2014-Sep-19 18:01 005 7.8
2014-Sep-19 17:51 005 7.8
2014-Sep-19 17:41 005 8.3
2014-Sep-19 17:31 005 8.3
2014-Sep-19 17:21 005 8.9
2014-Sep-19 17:11 005 9.4
2014-Sep-19 17:01 005 9.4
2014-Sep-19 16:51 005 9.4
2014-Sep-19 16:41 005 9.4
2014-Sep-19 16:31 005 9.4
2014-Sep-19 16:21 005 9.4
2014-Sep-19 16:11 005 9.4
2014-Sep-19 16:01 005 10.0